CAPSAT 1

Last updated on Sat Jan 28 2023 00:02:07 GMT+0000 (Coordinated Universal Time)

1 53770U 98067UH 23027.13136967 .04488670 11903-4 17052-2 0 9994 2 53770 51.6187 289.3959 0008531 212.1732 147.8768 16.23372748 22392

Satellite not in orbit